Regional Weather Roundup
Issued by NWS Little Rock, AR

Home | Current Version | Previous Version | Text Only | Print | Product List | Glossary Off
Versions: 1 2 3 4 5 6 7 8 9 10 11 12 13 14 15 16 17 18 19 20 21 22 23 24 25 26 27 28 29 30 31 32 33 34 35 36 37 38 39 40 41 42 43 44 45 46 47 48 49 50

469
ASUS44 KLZK 271605
RWRLZK

WEATHER ROUNDUP FOR ARKANSAS
NATIONAL WEATHER SERVICE LITTLE ROCK AR
1100 AM CDT THU JUL 27 2017

NOTE: "FAIR" INDICATES FEW OR NO CLOUDS BELOW 12,000 FEET WITH NO
SIGNIFICANT WEATHER AND/OR OBSTRUCTIONS TO VISIBILITY.

ARZ001-003-010-029-271700-
NORTHWEST ARKANSAS

CITY           SKY/WX    TMP DP  RH WIND       PRES   REMARKS
FAYETTEVILLE   CLOUDY    81  74  79 SW9       30.04S HX  86
FORT SMITH     CLOUDY    87  73  62 SW9       30.00S HX  94
HARRISON       LGT RAIN  77  75  93 N3        30.05S
BENTONVILLE    CLOUDY    79  72  78 CALM      30.05R
ROGERS         LGT RAIN  79  73  82 CALM      30.06R
SILOAM SPGS    CLOUDY    79  72  78 SW8       30.03S
HIGHFILL       LGT RAIN  79  74  84 SW5       30.04R
SPRINGDALE     PTSUNNY   81  72  74 SW7       30.06R
$$

ARZ004-005-016-271700-
NORTH CENTRAL ARKANSAS

CITY           SKY/WX    TMP DP  RH WIND       PRES   REMARKS
BATESVILLE     CLOUDY    88  75  66 W6        30.01R HX  97
FLIPPIN        CLOUDY    79  70  73 CALM      30.01S
MTN HOME       LGT RAIN  79  73  82 CALM      30.03S
$$

ARZ040-041-271700-
WEST CENTRAL ARKANSAS

CITY           SKY/WX    TMP DP  RH WIND       PRES   REMARKS
MENA           CLOUDY    90  77  66 W12       30.06S HX 102
MOUNT IDA      CLOUDY    89  68  49 MISG      30.02S HX  93
$$

ARZ009-017-025-026-028-271700-
NORTHEAST ARKANSAS

CITY           SKY/WX    TMP DP  RH WIND       PRES   REMARKS
CORNING        LGT RAIN  84  79  84 W7        30.00R HX  96
JONESBORO      PTSUNNY   87  78  74 SW12      29.99S HX 100
WALNUT RIDGE   CLOUDY    86  73  66 W8        29.99S HX  93
BLYTHEVILLE    PTSUNNY   86  78  77 SW8       30.00S HX  98
$$

ARZ022-023-033-042-044-271700-
CENTRAL ARKANSAS

CITY           SKY/WX    TMP DP  RH WIND       PRES   REMARKS
LITTLE ROCK    CLOUDY    88  75  65 W9        30.02S HX  97
N LITTLE ROCK    N/A     86  76  70 W5        30.00S HX  96
JACKSONVILLE   PTSUNNY   88  76  67 W5        30.01S HX  99
CONWAY           N/A     90  73  58 SW8       29.99F HX  98
HOT SPRINGS    MOSUNNY   89  74  60 SW7       30.03F HX  98
RUSSELLVILLE   CLOUDY    87  75  67 W5        30.00S HX  96
CLINTON        PTSUNNY   86  75  70 CALM      30.01S HX  95
$$

ARZ036-271700-
EAST ARKANSAS

CITY           SKY/WX    TMP DP  RH WIND       PRES   REMARKS
WEST MEMPHIS   CLOUDY    88  77  69 W7        30.01S HX 100
$$

ARZ050-053-066-070-073-271700-
SOUTHWEST ARKANSAS

CITY           SKY/WX    TMP DP  RH WIND       PRES   REMARKS
ARKADELPHIA    FAIR      88  77  69 SW7       30.03S HX 100
CAMDEN         CLOUDY    90  72  55 SW6       30.04S HX  96
TEXARKANA      CLOUDY    88  71  57 W14       30.04F HX  94
EL DORADO      SUNNY     89  72  56 VRB7      30.06S HX  96
DE QUEEN       MOSUNNY   87  77  72 W7        30.02F HX  99
$$

ARZ056-057-069-271700-
SOUTHEAST ARKANSAS

CITY           SKY/WX    TMP DP  RH WIND       PRES   REMARKS
PINE BLUFF     MOSUNNY   88  75  65 SW10      30.03S HX  97
STUTTGART      CLOUDY    90  70  51 SW9       30.03S HX  95
MONTICELLO     SUNNY     89  75  63 W7        30.05S HX  99

$$






USA.gov is the U.S. government's official web portal to all federal, state and local government web resources and services.